339  
ASUS41 KPHI 050212  
RWRPHI  
 
REGIONAL WEATHER ROUNDUP  
NATIONAL WEATHER SERVICE MOUNT HOLLY NJ  
1000 PM EDT SAT APR 04 2020  
 
NOTE: "FAIR" INDICATES FEW OR NO CLOUDS BELOW 12,000 FEET WITH NO  
SIGNIFICANT WEATHER AND/OR S TO VISIBILITY
.  
 
* = STATION DOES NOT REPORT PRECIPITATION (E.G. RAIN, SNOW, ETC.)  
OR FOG.
 
 
NJZ015>026-050300-  
SOUTHERN NEW JERSEY  
 
CITY SKY/WX TMP DP RH WIND PRES REMARKS
 
POMONA FAIR 45 40 82 S5 30.06R  
WILDWOOD* FAIR 41 38 89 S3 30.08R  
MILLVILLE FAIR 44 41 89 CALM 30.05S  
WRIGHTSTOWN FAIR 44 42 90 SE7 30.04R  
MOUNT HOLLY FAIR 46 42 86 CALM 30.04R  
TRENTON FAIR 49 42 77 S3 30.02S  
 

 
NJZ001>014-050300-  
NORTHERN NEW JERSEY  
 
CITY SKY/WX TMP DP RH WIND PRES REMARKS
 
SUSSEX CLOUDY 54 43 66 CALM 30.01R  
ANDOVER* N/A 45 43 93 CALM 30.01R  
MORRISTOWN CLOUDY 55 45 67 SW9 30.02R  
NEWARK CLOUDY 49 42 77 SE5 30.03R  
TETERBORO CLOUDY 49 41 74 S7 30.01S  
CALDWELL CLOUDY 53 42 66 S5 30.02R  
SOMERVILLE MOCLDY 51 43 74 CALM 30.00R  
ALLAIRE* CLOUDY 44 44 100 S3 30.06R  
TOMS RIVER* MOCLDY 42 39 89 S3 30.06R  
 

 
PAZ043-044-047-054-055-060>062-066>071-050300-  
EASTERN PENNSYLVANIA  
 
CITY SKY/WX TMP DP RH WIND PRES REMARKS
 
PHILADELPHIA FAIR 51 43 74 SW7 30.04S  
NORTH PHILA FAIR 51 44 77 SW3 30.05R  
BLUE BELL* MOCLDY 47 44 91 W3 30.04R  
DOYLESTOWN FAIR 48 42 80 CALM 30.02S  
QUAKERTOWN* CLOUDY 52 45 76 CALM 30.03S  
PERKASIE* CLOUDY 50 45 81 W3 30.04R  
POTTSTOWN MOCLDY 51 43 74 CALM 30.04S  
LANCASTER CLOUDY 54 44 69 SW3 30.04R  
COATESVILLE FAIR 48 45 87 CALM 30.06R  
WEST CHESTER FAIR 50 43 76 CALM 30.05R  
READING CLOUDY 54 46 74 SW5 30.02R  
ALLENTOWN CLOUDY 56 44 64 W5 30.02R  
QN CITY/ALNTWN CLOUDY 54 45 71 S3 30.03S  
MOUNT POCONO NOT AVBL  
HAZLETON CLOUDY 50 41 71 CALM 30.04S  
LEHIGHTON CLOUDY 52 46 82 CALM 30.03R  
WILKES BARRE CLOUDY 53 43 68 CALM 30.02R  
 

 
DEZALL-MDZ008-012-015-019-020-050300-  
DELAWARE AND EASTERN MARYLAND  
 
CITY SKY/WX TMP DP RH WIND PRES REMARKS
 
WILMINGTON FAIR 49 45 86 S5 30.06R  
DOVER FAIR 43 43 99 SE6 30.06R  
CHESWOLD CLEAR 46 45 93 S3 30.06S  
GEORGETOWN FAIR 44 41 89 CALM 30.08R  
EASTON CLOUDY 52 46 82 S3 30.10R  
STEVENSVILLE CLOUDY 54 50 87 S7 30.07R  
ABERDEEN CLOUDY 51 47 84 CALM 30.07R  
PATUXENT MOCLDY 51 49 92 SE7 30.07  
OCEAN CITY FAIR 41 39 93 W3 30.08R  
WALLOPS ISLAND FAIR 45 42 89 E3 30.08R  
CAMBRIDGE CLOUDY 50 46 87 CALM 30.07S  
SALISBURY FAIR 43 39 86 CALM 30.08R  
 

 
PAZ001-021-NYZ056-072-MDZ011-DCZ001-050300-  
OTHER NEARBY LOCATIONS  
 
CITY SKY/WX TMP DP RH WIND PRES REMARKS
 
HARRISBURG FAIR 48 42 80 SE3 30.03R  
STATE COLLEGE CLOUDY 54 41 62 CALM 30.02S  
WILLIAMSPORT FAIR 51 42 71 CALM 30.01R  
BINGHAMTON CLOUDY 49 41 74 N3 30.01R  
NEW YORK CITY CLOUDY 48 41 76 CALM 30.05R  
BALTIMORE CLOUDY 55 42 61 E3 30.05R  
WASHINGTON DC FAIR 52 44 74 S6 30.07R  
 

 
 
 
CLICK HERE TO GO TO PREVIOUS BULLETINS.

The Nexlab PA Page
The Nexlab NJ Page
The Nexlab DE Page
The Nexlab MD Page Main Text Page